Retour au catalogue

SL-14 DEB

ActifPO
NORAD 19646·DEBRIS·🇷🇺 Russia

Lancé Oct 26, 1978 depuis Plesetsk Cosmodrome

Loading…

Prochains Passages (prochaines 24 heures)

TLE

FraisSource: Space-Track

Époque: Sep 14, 2026, 03:56 UTC

1 19646U 78100AM  26257.16448242  .00005272  00000-0  10898-1 0  9998
2 19646  82.1246 204.2267 0058037 164.8289 259.4572 13.31554569428555

Suivez SL-14 DEB en temps réel avec AllMySat

Download on the App Store